Grand Junction, CO

11:26 AM MDT on September 16, 2019 (GMT -0600)
Walker

Weather History for KGJT - April, 2019

Change the Weather History Date:

Thursday, April 25, 2019

  Actual Average Record
Temperature  
Mean Temperature 63 °F 55 °F  
Max Temperature 77 °F 68 °F 85 °F (1946)
Min Temperature 49 °F 41 °F 27 °F (1960)
Degree Days  
Heating Degree Days 2 11  
Month to date heating degree days 262 354  
Since 1 July heating degree days 5370 5386  
Cooling Degree Days 0 0  
Month to date cooling degree days 0 0  
Year to date cooling degree days 0 0  
Growing Degree Days 14 (Base 50)    
Moisture  
Dew Point 34 °F    
Average Humidity 37    
Maximum Humidity 54    
Minimum Humidity 19    
Precipitation  
Precipitation 0.00 in 0.03 in 0.51 in (1957)
Month to date precipitation 0.38 0.77  
Year to date precipitation 4.11 2.81  
Snow  
Snow 0.00 in 0.00 in 1.50 in (1924)
Month to date snowfall T 0.8  
Since 1 July snowfall 17.4 18.9  
Snow Depth 0.00 in    
Sea Level Pressure  
Sea Level Pressure 29.92 in    
Wind  
Wind Speed 6 mph (NNE)    
Max Wind Speed 16 mph    
Max Gust Speed 21 mph    
Visibility 10 miles    
Events      
T = Trace of Precipitation, MM = Missing Value Source: NWS Daily Summary

Daily Weather History Graph

Daily Weather History Graph

Search for Another Location

Airport or City:

Astronomy

Apr. 25, 2019 Rise Set
Actual Time 6:23 AM MDT 8:01 PM MDT
Civil Twilight 5:55 AM MDT 8:29 PM MDT
Nautical Twilight 5:21 AM MDT 9:03 PM MDT
Astronomical Twilight 4:44 AM MDT 9:40 PM MDT
Moon 1:32 AM MDT (4/25) 11:18 AM MDT (4/25)
Length of Visible Light 14h 34m
Length of Day
13h 37m
Waning Gibbous, 61% of the Moon is Illuminated
Apr 25
Waning Gibbous
Apr 26
Last Quarter
May 4
New
May 11
First Quarter
May 18
Full

Hourly Weather History & Observations

Time (MDT) Temp. Dew Point Humidity Pressure Visibility Wind Dir Wind Speed Gust Speed Precip Events Conditions
12:53 AM 59.0 °F 35.1 °F 41% 29.88 in 10.0 mi Calm Calm - N/A   Scattered Clouds
1:53 AM 57.0 °F 35.1 °F 44% 29.87 in 10.0 mi NNW 3.5 mph - N/A   Partly Cloudy
2:53 AM 52.0 °F 36.0 °F 54% 29.88 in 10.0 mi South 3.5 mph - N/A   Clear
3:53 AM 52.0 °F 36.0 °F 54% 29.90 in 10.0 mi NE 3.5 mph - N/A   Clear
4:53 AM 59.0 °F 35.1 °F 41% 29.90 in 10.0 mi ENE 8.1 mph - N/A   Clear
5:53 AM 59.0 °F 35.1 °F 41% 29.92 in 10.0 mi NNE 10.4 mph - N/A   Clear
6:53 AM 55.0 °F 36.0 °F 49% 29.96 in 10.0 mi Variable 4.6 mph - N/A   Clear
7:53 AM 60.1 °F 37.0 °F 42% 29.98 in 10.0 mi Calm Calm - N/A   Clear
8:53 AM 63.0 °F 39.0 °F 41% 29.99 in 10.0 mi Variable 3.5 mph 19.6 mph N/A   Clear
9:53 AM 66.0 °F 36.0 °F 33% 29.99 in 10.0 mi ENE 8.1 mph - N/A   Clear
10:53 AM 66.9 °F 34.0 °F 30% 29.99 in 10.0 mi North 4.6 mph - N/A   Clear
11:53 AM 71.1 °F 34.0 °F 26% 29.98 in 10.0 mi Variable 5.8 mph - N/A   Clear
12:53 PM 71.1 °F 33.1 °F 25% 29.96 in 10.0 mi ESE 5.8 mph - N/A   Clear
1:53 PM 73.0 °F 30.9 °F 21% 29.94 in 10.0 mi South 4.6 mph - N/A   Clear
2:53 PM 75.9 °F 32.0 °F 20% 29.94 in 10.0 mi West 9.2 mph - N/A   Clear
3:53 PM 77.0 °F 32.0 °F 19% 29.90 in 10.0 mi West 9.2 mph - N/A   Clear
4:53 PM 75.9 °F 32.0 °F 20% 29.88 in 10.0 mi West 10.4 mph - N/A   Clear
5:53 PM 75.9 °F 30.9 °F 19% 29.87 in 10.0 mi WNW 8.1 mph 19.6 mph N/A   Clear
6:53 PM 73.0 °F 30.0 °F 20% 29.88 in 10.0 mi NW 10.4 mph - N/A   Clear
7:53 PM 68.0 °F 33.1 °F 27% 29.88 in 10.0 mi NNW 8.1 mph - N/A   Clear
8:53 PM 63.0 °F 33.1 °F 33% 29.91 in 10.0 mi North 8.1 mph - N/A   Clear
9:53 PM 57.9 °F 35.1 °F 42% 29.93 in 10.0 mi ENE 3.5 mph - N/A   Clear
10:53 PM 57.0 °F 35.1 °F 44% 29.94 in 10.0 mi ENE 4.6 mph - N/A   Clear
11:53 PM 57.9 °F 33.1 °F 39% 29.91 in 10.0 mi East 5.8 mph - N/A   Clear